BAW225 EETN-EKCH

Flight info

Callsign BAW225
Flight time 1h 18m
Altitude 38000
Route LONSA DCT SUVIX DCT PIMEX P739 DEREX DCT KOTAM L990 EKRAL P605 TIDVU
Aircraft B77W/H-SDE1E2E3FGHIJ2J3J4J5M1RWXY/LB1D1

Departure

Time 2026-05-06 14:23
Airport Lennart Meri Tallinn Airport (EETN)

Arrival

Time 2026-05-06 15:41
Airport Copenhagen Kastrup Airport (EKCH)
Time Latitude Longitude Altitude Speed Heading
2026-05-06 14:05 59.41567 24.80277 166 ft 0 kts
2026-05-06 14:16 59.41557 24.80277 167 ft 4 kts
2026-05-06 14:16 59.41547 24.80271 167 ft 4 kts 37°
2026-05-06 14:16 59.41532 24.80241 167 ft 4 kts 69°
2026-05-06 14:16 59.41528 24.80195 167 ft 4 kts 93°
2026-05-06 14:17 59.41529 24.80158 167 ft 1 kts 91°
2026-05-06 14:17 59.41529 24.80151 167 ft 0 kts 91°
2026-05-06 14:18 59.41529 24.80152 167 ft 0 kts 91°
2026-05-06 14:19 59.41529 24.80153 167 ft 1 kts 91°
2026-05-06 14:19 59.41529 24.80173 167 ft 3 kts 91°
2026-05-06 14:19 59.41528 24.80256 167 ft 11 kts 91°
2026-05-06 14:19 59.41515 24.80457 167 ft 19 kts 102°
2026-05-06 14:20 59.41506 24.80771 167 ft 27 kts 90°
2026-05-06 14:20 59.41505 24.81163 167 ft 30 kts 90°
2026-05-06 14:20 59.41504 24.81620 167 ft 37 kts 90°
2026-05-06 14:20 59.41503 24.82169 167 ft 43 kts 90°
2026-05-06 14:21 59.41501 24.82796 167 ft 49 kts 90°
2026-05-06 14:21 59.41499 24.83493 167 ft 53 kts 91°
2026-05-06 14:21 59.41498 24.84246 167 ft 57 kts 90°
2026-05-06 14:21 59.41495 24.85052 167 ft 61 kts 90°
2026-05-06 14:22 59.41493 24.85886 167 ft 57 kts 90°
2026-05-06 14:22 59.41491 24.86558 167 ft 20 kts 90°
2026-05-06 14:22 59.41471 24.86835 167 ft 18 kts 140°
2026-05-06 14:22 59.41336 24.86838 168 ft 23 kts 226°
2026-05-06 14:23 59.41317 24.86471 165 ft 47 kts 270°
2026-05-06 14:23 59.41322 24.84956 167 ft 175 kts 270°
2026-05-06 14:23 59.41329 24.82036 1090 ft 224 kts 272°
2026-05-06 14:23 59.41255 24.78999 3202 ft 227 kts 257°
2026-05-06 14:24 59.40584 24.76161 4232 ft 237 kts 238°
2026-05-06 14:24 59.39615 24.73418 5031 ft 249 kts 234°
2026-05-06 14:24 59.38576 24.70624 5992 ft 258 kts 234°
2026-05-06 14:24 59.37512 24.67728 6970 ft 264 kts 235°
2026-05-06 14:25 59.36443 24.64770 8065 ft 267 kts 236°
2026-05-06 14:25 59.35376 24.61768 9195 ft 270 kts 237°
2026-05-06 14:25 59.34312 24.58736 10323 ft 271 kts 237°
2026-05-06 14:25 59.33224 24.55616 11077 ft 288 kts 238°
2026-05-06 14:26 59.32044 24.52195 11369 ft 320 kts 238°
2026-05-06 14:26 59.30741 24.48399 11776 ft 347 kts 238°
2026-05-06 14:26 59.29379 24.44441 12858 ft 353 kts 238°
2026-05-06 14:26 59.28005 24.40450 14178 ft 353 kts 238°
2026-05-06 14:27 59.26632 24.36461 15356 ft 355 kts 238°
2026-05-06 14:27 59.25247 24.32440 16471 ft 358 kts 238°
2026-05-06 14:27 59.23849 24.28383 17574 ft 362 kts 238°
2026-05-06 14:27 59.22437 24.24294 18636 ft 365 kts 238°
2026-05-06 14:28 59.21012 24.20168 19627 ft 367 kts 238°
2026-05-06 14:28 59.19577 24.16022 20605 ft 370 kts 238°
2026-05-06 14:28 59.18132 24.11855 21545 ft 373 kts 237°
2026-05-06 14:28 59.16671 24.07648 22451 ft 376 kts 237°
2026-05-06 14:29 59.15200 24.03421 23368 ft 379 kts 237°
2026-05-06 14:29 59.13710 23.99147 24133 ft 383 kts 237°
2026-05-06 14:29 59.12230 23.94905 24822 ft 386 kts 237°
2026-05-06 14:29 59.10709 23.90554 25509 ft 390 kts 237°
2026-05-06 14:30 59.09175 23.86180 26170 ft 393 kts 236°
2026-05-06 14:30 59.07644 23.81751 26809 ft 397 kts 238°
2026-05-06 14:30 59.06184 23.77172 27426 ft 400 kts 239°
2026-05-06 14:30 59.04754 23.72500 28023 ft 404 kts 239°
2026-05-06 14:31 59.03323 23.67775 28598 ft 407 kts 239°
2026-05-06 14:31 59.01880 23.63025 29155 ft 411 kts 239°
2026-05-06 14:31 59.00417 23.58247 29654 ft 414 kts 239°
2026-05-06 14:31 58.98934 23.53434 30135 ft 416 kts 239°
2026-05-06 14:32 58.97445 23.48632 30678 ft 415 kts 239°
2026-05-06 14:32 58.95961 23.43863 31310 ft 412 kts 238°
2026-05-06 14:32 58.94483 23.39131 31895 ft 410 kts 238°
2026-05-06 14:32 58.93006 23.34413 32405 ft 409 kts 238°
2026-05-06 14:33 58.91529 23.29705 32905 ft 409 kts 238°
2026-05-06 14:33 58.90055 23.25013 33393 ft 408 kts 238°
2026-05-06 14:33 58.88582 23.20336 33901 ft 406 kts 238°
2026-05-06 14:33 58.87113 23.15678 34311 ft 406 kts 238°
2026-05-06 14:34 58.86135 23.12583 34486 ft 408 kts 238°
2026-05-06 14:34 58.84167 23.06368 34842 ft 411 kts 238°
2026-05-06 14:34 58.81146 22.96857 34987 ft 418 kts 238°
2026-05-06 14:35 58.78124 22.87382 35010 ft 412 kts 238°
2026-05-06 14:35 58.75628 22.79582 35010 ft 411 kts 238°
2026-05-06 14:36 58.72619 22.70213 35016 ft 412 kts 237°
2026-05-06 14:36 58.69597 22.60840 35011 ft 413 kts 237°
2026-05-06 14:37 58.66510 22.51525 35009 ft 414 kts 236°
2026-05-06 14:37 58.63357 22.42268 35007 ft 415 kts 236°
2026-05-06 14:38 58.60191 22.32994 35007 ft 416 kts 236°
2026-05-06 14:38 58.57022 22.23715 35007 ft 416 kts 236°
2026-05-06 14:39 58.53845 22.14437 35009 ft 417 kts 236°
2026-05-06 14:39 58.50655 22.05155 35004 ft 417 kts 236°
2026-05-06 14:40 58.47459 21.95895 35006 ft 417 kts 236°
2026-05-06 14:40 58.44255 21.86644 35001 ft 418 kts 236°
2026-05-06 14:41 58.41412 21.78469 35001 ft 418 kts 236°
2026-05-06 14:41 58.38190 21.69235 35014 ft 418 kts 235°
2026-05-06 14:42 58.34981 21.60075 35016 ft 419 kts 235°
2026-05-06 14:42 58.31719 21.50798 34997 ft 419 kts 235°
2026-05-06 14:43 58.28470 21.41594 34996 ft 419 kts 235°
2026-05-06 14:43 58.25236 21.32461 34993 ft 420 kts 235°
2026-05-06 14:44 58.21928 21.23328 34994 ft 420 kts 232°
2026-05-06 14:45 58.15944 21.11230 34999 ft 420 kts 225°
2026-05-06 14:45 58.11788 21.03432 35000 ft 421 kts 225°
2026-05-06 14:46 58.07636 20.95624 34995 ft 422 kts 224°
2026-05-06 14:46 58.03472 20.87814 34995 ft 422 kts 224°
2026-05-06 14:47 57.99297 20.80011 34994 ft 423 kts 224°
2026-05-06 14:47 57.95114 20.72222 34990 ft 423 kts 224°
2026-05-06 14:48 57.90924 20.64448 34994 ft 423 kts 224°
2026-05-06 14:48 57.86720 20.56673 34989 ft 424 kts 224°
2026-05-06 14:49 57.82508 20.48912 34984 ft 425 kts 224°
2026-05-06 14:49 57.78312 20.41203 34985 ft 425 kts 223°
2026-05-06 14:50 57.74084 20.33461 34974 ft 426 kts 223°
2026-05-06 14:50 57.69896 20.25614 34978 ft 427 kts 227°
2026-05-06 14:51 57.66387 20.16632 34981 ft 430 kts 235°
2026-05-06 14:51 57.63554 20.06778 34992 ft 432 kts 241°
2026-05-06 14:52 57.60975 19.96618 34985 ft 434 kts 241°
2026-05-06 14:52 57.58389 19.86447 34977 ft 434 kts 241°
2026-05-06 14:53 57.55775 19.76290 34980 ft 435 kts 241°
2026-05-06 14:53 57.53143 19.66149 34979 ft 435 kts 240°
2026-05-06 14:54 57.50496 19.56014 34971 ft 436 kts 240°
2026-05-06 14:54 57.47838 19.45879 34969 ft 436 kts 240°
2026-05-06 14:55 57.45167 19.35740 34977 ft 437 kts 240°
2026-05-06 14:55 57.42484 19.25604 34976 ft 438 kts 240°
2026-05-06 14:56 57.39790 19.15468 34974 ft 439 kts 240°
2026-05-06 14:56 57.37081 19.05323 34967 ft 439 kts 240°
2026-05-06 14:57 57.34360 18.95178 34974 ft 440 kts 240°
2026-05-06 14:57 57.31626 18.85027 34975 ft 441 kts 240°
2026-05-06 14:58 57.28882 18.74886 34978 ft 441 kts 240°
2026-05-06 14:58 57.26124 18.64741 34975 ft 442 kts 240°
2026-05-06 14:59 57.23352 18.54590 34968 ft 443 kts 240°
2026-05-06 14:59 57.20587 18.44507 34975 ft 444 kts 240°
2026-05-06 15:00 57.17787 18.34343 34973 ft 445 kts 240°
2026-05-06 15:00 57.14975 18.24181 34963 ft 446 kts 239°
2026-05-06 15:01 57.12150 18.14016 34968 ft 446 kts 239°
2026-05-06 15:01 57.09311 18.03845 34971 ft 447 kts 239°
2026-05-06 15:02 57.06462 17.93686 34967 ft 448 kts 239°
2026-05-06 15:02 57.03598 17.83518 34970 ft 448 kts 239°
2026-05-06 15:03 57.00727 17.73368 34973 ft 448 kts 239°
2026-05-06 15:03 56.97850 17.63241 34973 ft 448 kts 239°
2026-05-06 15:04 56.94963 17.53124 34955 ft 448 kts 240°
2026-05-06 15:04 56.92072 17.43039 34956 ft 447 kts 240°
2026-05-06 15:05 56.89173 17.32969 34957 ft 447 kts 240°
2026-05-06 15:05 56.86266 17.22915 34956 ft 447 kts 240°
2026-05-06 15:06 56.83353 17.12884 34973 ft 446 kts 240°
2026-05-06 15:06 56.80455 17.02947 34954 ft 447 kts 240°
2026-05-06 15:07 56.77526 16.92949 34955 ft 447 kts 240°
2026-05-06 15:07 56.74590 16.82967 34965 ft 447 kts 240°
2026-05-06 15:08 56.71639 16.72976 34992 ft 448 kts 240°
2026-05-06 15:08 56.68677 16.62994 34981 ft 449 kts 240°
2026-05-06 15:09 56.65702 16.53008 34987 ft 449 kts 240°
2026-05-06 15:09 56.62713 16.43018 34991 ft 450 kts 240°
2026-05-06 15:10 56.59719 16.33052 34995 ft 450 kts 240°
2026-05-06 15:10 56.56711 16.23085 34989 ft 450 kts 240°
2026-05-06 15:11 56.53695 16.13133 34985 ft 450 kts 239°
2026-05-06 15:11 56.50670 16.03193 34978 ft 451 kts 239°
2026-05-06 15:12 56.47635 15.93262 34960 ft 451 kts 239°
2026-05-06 15:12 56.44591 15.83345 34956 ft 451 kts 239°
2026-05-06 15:13 56.41535 15.73430 34950 ft 451 kts 239°
2026-05-06 15:13 56.38474 15.63537 34945 ft 452 kts 239°
2026-05-06 15:14 56.35397 15.53644 34940 ft 452 kts 239°
2026-05-06 15:14 56.32334 15.43825 34943 ft 452 kts 239°
2026-05-06 15:15 56.29245 15.33960 34939 ft 452 kts 239°
2026-05-06 15:15 56.26143 15.24104 34943 ft 452 kts 239°
2026-05-06 15:16 56.23036 15.14269 34936 ft 452 kts 239°
2026-05-06 15:16 56.19920 15.04444 34938 ft 452 kts 239°
2026-05-06 15:17 56.16802 14.94648 34940 ft 452 kts 239°
2026-05-06 15:17 56.13670 14.84875 34941 ft 452 kts 238°
2026-05-06 15:18 56.10119 14.75625 34946 ft 450 kts 233°
2026-05-06 15:18 56.06432 14.66566 34945 ft 450 kts 233°
2026-05-06 15:19 56.02753 14.57500 34949 ft 450 kts 233°
2026-05-06 15:19 55.99080 14.48438 34954 ft 450 kts 233°
2026-05-06 15:20 55.95401 14.39387 34962 ft 450 kts 233°
2026-05-06 15:20 55.91719 14.30361 34965 ft 450 kts 232°
2026-05-06 15:21 55.88031 14.21355 34967 ft 450 kts 232°
2026-05-06 15:21 55.84343 14.12379 34965 ft 450 kts 232°
2026-05-06 15:22 55.80633 14.03404 34964 ft 449 kts 231°
2026-05-06 15:22 55.77098 13.96679 34969 ft 447 kts 221°
2026-05-06 15:22 55.74737 13.93142 34756 ft 442 kts 217°
2026-05-06 15:23 55.72230 13.90052 34248 ft 436 kts 212°
2026-05-06 15:23 55.69667 13.87221 33621 ft 433 kts 211°
2026-05-06 15:23 55.66277 13.83522 32681 ft 431 kts 211°
2026-05-06 15:23 55.64558 13.81642 32204 ft 430 kts 211°
2026-05-06 15:24 55.62023 13.78857 31586 ft 427 kts 212°
2026-05-06 15:24 55.59510 13.76082 31003 ft 424 kts 212°
2026-05-06 15:24 55.57027 13.73335 30384 ft 413 kts 212°
2026-05-06 15:24 55.54628 13.70681 29139 ft 403 kts 212°
2026-05-06 15:25 55.52266 13.68072 27687 ft 398 kts 212°
2026-05-06 15:25 55.49961 13.65530 26299 ft 394 kts 212°
2026-05-06 15:25 55.47644 13.62980 24969 ft 390 kts 213°
2026-05-06 15:25 55.45437 13.60272 23706 ft 384 kts 224°
2026-05-06 15:26 55.43868 13.56570 22579 ft 372 kts 244°
2026-05-06 15:26 55.43075 13.52393 22002 ft 349 kts 258°
2026-05-06 15:26 55.42783 13.48279 21420 ft 331 kts 266°
2026-05-06 15:26 55.43002 13.44264 20265 ft 333 kts 284°
2026-05-06 15:27 55.43682 13.40344 19010 ft 336 kts 281°
2026-05-06 15:27 55.43915 13.36259 17953 ft 332 kts 268°
2026-05-06 15:27 55.43752 13.32272 17011 ft 322 kts 261°
2026-05-06 15:27 55.43391 13.28412 16013 ft 317 kts 259°
2026-05-06 15:28 55.42999 13.24623 15090 ft 312 kts 259°
2026-05-06 15:28 55.42607 13.20899 14143 ft 308 kts 260°
2026-05-06 15:28 55.42221 13.17225 13274 ft 302 kts 260°
2026-05-06 15:28 55.41842 13.13594 12206 ft 301 kts 260°
2026-05-06 15:29 55.41467 13.09987 11248 ft 298 kts 260°
2026-05-06 15:29 55.41095 13.06391 10208 ft 300 kts 260°
2026-05-06 15:29 55.40746 13.03018 9340 ft 296 kts 260°
2026-05-06 15:29 55.40397 12.99658 8329 ft 298 kts 261°
2026-05-06 15:30 55.40023 12.96053 7342 ft 299 kts 261°
2026-05-06 15:30 55.39651 12.92506 6667 ft 292 kts 261°
2026-05-06 15:30 55.39285 12.88978 5644 ft 296 kts 261°
2026-05-06 15:30 55.38915 12.85432 4865 ft 290 kts 259°
2026-05-06 15:31 55.38549 12.81936 3963 ft 292 kts 259°
2026-05-06 15:31 55.38186 12.78443 3298 ft 290 kts 259°
2026-05-06 15:31 55.37821 12.74969 3091 ft 291 kts 258°
2026-05-06 15:32 55.37122 12.68359 2940 ft 263 kts 258°
2026-05-06 15:32 55.36791 12.65240 2938 ft 259 kts 258°
2026-05-06 15:32 55.36455 12.62095 2960 ft 265 kts 258°
2026-05-06 15:32 55.36110 12.58874 2967 ft 269 kts 258°
2026-05-06 15:33 55.35765 12.55646 2958 ft 268 kts 258°
2026-05-06 15:33 55.35422 12.52443 2941 ft 265 kts 258°
2026-05-06 15:33 55.35082 12.49278 2950 ft 263 kts 258°
2026-05-06 15:33 55.34743 12.46126 2955 ft 262 kts 258°
2026-05-06 15:34 55.34404 12.42994 2973 ft 263 kts 258°
2026-05-06 15:34 55.34058 12.39819 2944 ft 264 kts 258°
2026-05-06 15:34 55.33797 12.36648 2924 ft 260 kts 269°
2026-05-06 15:34 55.34201 12.33558 2925 ft 264 kts 301°
2026-05-06 15:35 55.35415 12.31198 2955 ft 262 kts 329°
2026-05-06 15:35 55.37063 12.30012 2947 ft 250 kts 355°
2026-05-06 15:35 55.38761 12.30108 2947 ft 243 kts 17°
2026-05-06 15:35 55.40322 12.31192 2949 ft 241 kts 36°
2026-05-06 15:36 55.41626 12.33005 2955 ft 239 kts 44°
2026-05-06 15:36 55.42847 12.34993 2956 ft 240 kts 46°
2026-05-06 15:36 55.44075 12.37005 2945 ft 242 kts 45°
2026-05-06 15:36 55.45339 12.38980 2939 ft 241 kts 44°
2026-05-06 15:37 55.46570 12.40869 2919 ft 228 kts 44°
2026-05-06 15:37 55.47728 12.42643 2932 ft 214 kts 45°
2026-05-06 15:37 55.48815 12.44313 2850 ft 203 kts 45°
2026-05-06 15:37 55.49853 12.45909 2590 ft 190 kts 45°
2026-05-06 15:38 55.50794 12.47355 2343 ft 174 kts 45°
2026-05-06 15:38 55.51679 12.48719 2100 ft 168 kts 46°
2026-05-06 15:38 55.52548 12.50059 1850 ft 162 kts 45°
2026-05-06 15:38 55.53362 12.51310 1621 ft 150 kts 46°
2026-05-06 15:39 55.54119 12.52480 1445 ft 143 kts 46°
2026-05-06 15:39 55.54880 12.53654 1243 ft 147 kts 46°
2026-05-06 15:39 55.55658 12.54855 1050 ft 148 kts 46°
2026-05-06 15:39 55.56428 12.56044 797 ft 148 kts 45°
2026-05-06 15:40 55.57213 12.57249 602 ft 150 kts 46°
2026-05-06 15:40 55.58003 12.58456 414 ft 151 kts 47°
2026-05-06 15:40 55.58800 12.59681 183 ft 152 kts 45°
2026-05-06 15:40 55.59587 12.60910 35 ft 147 kts 47°
2026-05-06 15:41 55.60273 12.61982 29 ft 101 kts 41°
2026-05-06 15:41 55.60669 12.62592 31 ft 63 kts 40°
2026-05-06 15:41 55.60954 12.62861 29 ft 0 kts 12°
2026-05-06 15:42 55.60955 12.62861 29 ft 2 kts 12°
2026-05-06 15:42 55.60993 12.62875 29 ft 9 kts 11°
2026-05-06 15:42 55.61069 12.62901 29 ft 13 kts 12°
2026-05-06 15:42 55.61164 12.62977 29 ft 17 kts 36°
2026-05-06 15:43 55.61263 12.63129 29 ft 21 kts 41°
2026-05-06 15:43 55.61380 12.63314 29 ft 24 kts 42°
2026-05-06 15:43 55.61517 12.63522 29 ft 28 kts 41°
2026-05-06 15:43 55.61607 12.63661 29 ft 16 kts 41°
2026-05-06 15:44 55.61705 12.63811 29 ft 20 kts 42°
2026-05-06 15:44 55.61821 12.63993 29 ft 24 kts 40°
2026-05-06 15:44 55.61961 12.64144 29 ft 13 kts 25°
2026-05-06 15:44 55.62056 12.64224 29 ft 17 kts 25°
2026-05-06 15:45 55.62173 12.64322 28 ft 16 kts 25°
2026-05-06 15:45 55.62230 12.64368 26 ft 9 kts 23°
2026-05-06 15:45 55.62301 12.64407 28 ft 12 kts 14°
2026-05-06 15:45 55.62395 12.64445 29 ft 15 kts
2026-05-06 15:46 55.62462 12.64359 29 ft 11 kts 308°
2026-05-06 15:46 55.62498 12.64274 29 ft 1 kts 304°
2026-05-06 15:46 55.62513 12.64237 29 ft 6 kts 304°
2026-05-06 15:46 55.62556 12.64200 29 ft 9 kts
2026-05-06 15:47 55.62596 12.64291 29 ft 11 kts 67°
2026-05-06 15:47 55.62613 12.64362 29 ft 7 kts 66°
2026-05-06 15:47 55.62621 12.64394 29 ft 3 kts 66°
2026-05-06 15:47 55.62625 12.64409 29 ft 0 kts 66°